Погода в Болниси

Погода в Болниси : погода сейчас, прогноз погоды и архив. Всё, что Вы хотите узнать о погоде в Болниси!

Поиск расширенной информации на нашем сайте:

Другие новости

Новости СМИ2

Главная страница сайта

Новости сайта

03.07.2017

Напоминаем, что на нашем специализированном сайте Метеоцентр.Азия вы можете получить высокодетализированные автоматические прогнозы погоды по пунктам России, СНГ и мира в авиационном формате (включающие направление и скорость ветра, видимость, явления погоды, количество и форму облачности, нижнюю и верхнюю границу облачности).

Рекомендуем: Свадьба на Бали и других островах

Погода в Болниси - сегодня

Время (UTC), дата Ветер
(°,м/с) 
Видим.   Явления Облачность Т
(°С)
Тd
(°С)
f(%) Тe
(°С)
Pmin
(гПа)
dP
(гПа)
Po
(мм)
O2
(г/м3)
Тmin Tmax R s Состояние
почвы
09 10.04.18 140 (ЮВ) 20000 м    4/4 1000 м 
[Cu med, cong]
+16.3 +4.5 45 +18  1024.1  -1.8  721  273           
21 10.04.18 тихо ()   н/о    6/0 1000 м средняя 
[Ac trans]
+10 +4.6 69 +10  1023.2  0.2  720  279           
09 11.04.18 140 (ЮВ) 20000 м    1/0 1000 м верхняя 
[Ci fib]
+19.1 +5.9 42 +21  1015.3  -2.4  716  268           
21 11.04.18 тихо ()   н/о    1/1 1000 м 
[Sc]
+13.1 +10.2 83 +16  1014.3  -0.2  714  273           
09 12.04.18 110 (В) 20000 м    8/0 1000 м средняя, верхняя 
[Ac trans|Ci fib]
+23.9 +9.9 41 +26  1008.7  -1.8  712  262           
21 12.04.18 тихо ()   н/о    9/9 1000 м 
[Sc]
+15.7 +7 56 +16  1013.7  0.9  714  271           
09 13.04.18 140 (ЮВ) 20000 м    9/9 1000 м 
[Sc]
+20.5 +8.5 46 +21  1011.8  -0.6  713  266           
21 13.04.18 тихо ()   н/о  слаб. ливневой дождь  10/10 600 м кучево-дожд. 
[Cb cap]
+12.5 +10.4 87 +15  1014.5  0.4  714  273           
03 14.04.18 тихо ()   20000 м  слаб. ливневой дождь  10/10 600 м кучево-дожд. 
[Cb cap]
+11.6 +10 90 +14  1015.5  0.4  715  274         
09 14.04.18 070 (В) 20000 м  в посл. час ливневой дождь  9/9 1000 м 
[Sc]
+12.6 +10.3 86 +16  1016.3  0.5  715  274           
21 14.04.18 тихо ()   н/о    9/9 1000 м 
[Sc]
+10.6 +7.7 82 +11  1016.9  715  276           
03 15.04.18 050 (СВ) 20000 м    9/8 1000 м средняя 
[Sc|Ac trans]
+8.9 +6.2 83 +10  1018.8  1.6  716  278      0.0     
09 15.04.18 070 (В) н/о    н/о 
+7 +6.3 95 +5  1041.8  1.3  719  281         
21 15.04.18 тихо ()   н/о  слаб. дождь  10/10 600 м 
[Sc|Ns]
+5.1 +4.4 95 +5  1028  0.8  722  285           
03 16.04.18 тихо ()   10 км  слаб. дождь  10/10 600 м 
[Sc|Ns]
+4.3 +3.8 97 +4  1028.6  0.2  723  286         
09 16.04.18 тихо ()   20000 м    9/9 1000 м 
[Cu med, cong]
+8 +1.7 64 +8  1028.9  -0.6  723  283           
03 17.04.18 тихо ()   20000 м  гроза, пыльная буря  9/9 1000 м 
[Sc]
+6.3 +3.5 82 +6  1026.5  6.8  721  283           
09 17.04.18 090 (В) 20000 м    8/8 1000 м 
[Sc]
+11.8 +0.9 47 +13  1023.9  -0.8  720  278           
21 17.04.18 тихо ()   н/о    ясно 
+6.4 +2 73 +6  1026.5  1.3  721  284           
09 18.04.18 050 (СВ) 20000 м    8/0 1000 м средняя, верхняя 
[Ac trans|Ci fib]
+15.5 +3.4 44 +16  1023.3  -0.6  721  274           
21 18.04.18 тихо ()   н/о    9/9 1000 м 
[Sc]
+8.6 +4.3 74 +9  1022.9  -0.6  719  280           
09 19.04.18 160 (Ю) 20000 м    1/0 1000 м средняя 
[Ac trans]
+18.1 +6.4 46 +20  1012.5  -1.9  713  269           
21 19.04.18 тихо ()   н/о    9/0 1000 м средняя 
[Ac trans]
+9.8 +3.4 64 +10  1012.1  712  276           
09 20.04.18 090 (В) 20000 м    6/1 1000 м средняя, верхняя 
[Cu med, cong|Ac trans|Ci fib]
+17.5 +4.5 42 +19  1005.3  -1.4  708  267           
21 20.04.18 тихо ()   н/о    10/10 600 м 
[Sc]
+10.8 +1.3 52 +11  1008.8  0.1  710  275           
Время (UTC), дата Ветер
(°,м/с) 
Видим.   Явления Облачность Т
(°С)
Тd
(°С)
f(%) Тe
(°С)
Pmin
(гПа)
dP
(гПа)
Po
(мм)
O2
(г/м3)
Тmin Tmax R s Состояние
почвы

Для получения пояснительной информации подведите курсор к названию столбца.

ПОГОДА в Болниси - архив

Всё, что Вы хотите узнать о погоде в Болниси - удобно и подробно!

Выберите нужную дату (начиная с 1 января 2015* года) и нажмите кнопку "Найти".
Будут отображены архивные сводки погоды по пункту Болниси, начиная с указанной даты.


Отображать данные в формате CSV (для использования в таблицах Excel)


Внимание! Наш архив погоды предназначен исключительно для личного некоммерческого использования в познавательных целях. Если Вам необходимы официальные справки о состоянии погоды (для производственных, юридических, коммерческих и т.п. целей), обращайтесь в органы Росгидромета.

*Примечание: данная дата относится к архиву по метеостанциям СССР (Россия, СНГ, Балтия).
Архив по метеостанциям Зарубежной Европы и Азии (кроме Китая) хранится 10 дней, по другим регионам земного шара (Китай, Африка, Америка, Австралия, Океания) - 1 день.

Болниси - район местоположения метеостанции


Название, широта, долгота, высота метеостанции:
Болниси 41.4°ш. 44.6°д. 534 м над ур. моря [Грузия]

Дополнительная информация

В oтличие oт бoльшинства пoгoдных сайтoв мы публикуем пoдрoбную метеoинфoрмацию в детальнoм прoфессиoнальнoм фoрмате.

Характеристики температуры и влажнoсти вoздуха измеряются на высoте 2 м в тени вдали oт зданий и деревьев.
Скoрoсть ветра измеряется на высoте 10 м (на урoвне рoста челoвека скoрoсть ветра ниже в 1.5-2 раза). Если метеoстанция нахoдится в гoрoде или в лесу, тo скoрoсть ветра занижена на 2-4 м/с пo сравнению с oткрытым местoм. Скoрoсть ветра над акватoриями крупных рек и oзёр, а также на вершинах хoлмoв на 2-5 м/с выше, чем в oбычных услoвиях.
Атмoсфернoе давление в разных тoчках местнoсти мoжет значительнo oтличаться oт давления на метеoстанции, в зависимoсти oт услoвий рельефа (при пoдъёме на 10 м давление пoнижается примернo на 1 мм рт.ст.).